User: anonymous   Login
Location: Shaftesbury Settlement
(56.1590°N, 117.4369°W)
Time: 13:25:07
(UTC+00:00)
Language:

Hubble Space Telescope - Orbit

View from above orbital plane
View from above orbital plane
View from above satellite
View from above satellite

Ground track
Ground track

The orbit data is extracted from the following two-line orbital elements,

1 20580U 90037B   19265.51390535  .00000391  00000-0  12837-4 0  9996
2 20580  28.4696 298.3005 0002956  77.1755  71.7353 15.09268838415380
Epoch (UTC): 22 September 2019 12:20:01
Eccentricity: 0.0002956
inclination: 28.4696°
perigee height: 536 km
apogee height: 540 km
right ascension of ascending node: 298.3005°
argument of perigee: 77.1755°
revolutions per day: 15.09268838
mean anomaly at epoch: 71.7353°
orbit number at epoch: 41538

The dashed part of the orbit path shows where the satellite is in the earth's shadow,  

DLR